Location: Newark
(59.4564°N, 26.6917°E)
Time: 15:54:16
(UTC+00:00)

SR - Pass Details

Date: 29 November 2019
Orbit: 573 x 882 km, 66.7° (Epoch: 15 December)

Event Time Altitude Azimuth Distance (km) Brightness Sun altitude
Rises 19:13:44 0° 312° (NW) 3,490 ? -41.9°
Reaches altitude 10° 19:16:25 10° 304° (NW) 2,553 ? -42.2°
Enters shadow 19:18:29 20° 292° (WNW) 1,916 ? -42.4°
Maximum altitude 19:21:45 35° 241° (WSW) 1,384 - -42.7°
Drops below altitude 10° 19:26:56 10° 178° (S) 2,481 - -43.2°
Sets 19:29:31 0° 169° (S) 3,379 - -43.5°
